Time,TemperatureF,DewpointF,PressureIn,WindDirection,WindDirectionDegrees,WindSpeedMPH,WindSpeedGustMPH,Humidity,HourlyPrecipIn,Conditions,Clouds,dailyrainin,SoftwareType,DateUTC
2013-09-07 00:04:00,78.4,68.2,29.95,South,187,0.0,0.0,71,0.00,,SKC,0.00,VWS V13.01,2013-09-07 05:04:00,
2013-09-07 00:09:00,78.4,68.2,29.95,SSW,210,0.0,7.0,71,0.00,,SKC,0.00,VWS V13.01,2013-09-07 05:09:00,
2013-09-07 00:15:00,78.3,68.1,29.95,SSE,153,0.0,0.0,71,0.00,,SKC,0.00,VWS V13.01,2013-09-07 05:15:00,
2013-09-07 00:21:00,78.1,67.9,29.95,South,174,0.0,0.0,71,0.00,,SKC,0.00,VWS V13.01,2013-09-07 05:21:00,
2013-09-07 00:26:00,78.1,67.9,29.95,SSW,193,0.0,2.0,71,0.00,,SKC,0.00,VWS V13.01,2013-09-07 05:26:00,
2013-09-07 00:31:00,78.0,67.8,29.96,South,187,0.0,0.0,71,0.00,,SKC,0.00,VWS V13.01,2013-09-07 05:31:00,
2013-09-07 00:36:00,78.0,67.8,29.96,SSW,203,0.0,3.0,71,0.00,,SKC,0.00,VWS V13.01,2013-09-07 05:36:00,
2013-09-07 00:41:00,78.0,67.8,29.96,South,180,0.0,6.0,71,0.00,,SKC,0.00,VWS V13.01,2013-09-07 05:41:00,
2013-09-07 00:46:00,77.9,67.8,29.96,SSW,204,0.0,0.0,71,0.00,,SKC,0.00,VWS V13.01,2013-09-07 05:46:00,
2013-09-07 00:51:00,77.8,67.7,29.96,SSW,202,0.0,0.0,71,0.00,,SKC,0.00,VWS V13.01,2013-09-07 05:51:00,
2013-09-07 00:57:00,77.7,68.0,29.96,SSW,200,0.0,1.0,72,0.00,,SKC,0.00,VWS V13.01,2013-09-07 05:57:00,
2013-09-07 01:03:00,77.6,67.9,29.96,SSW,196,0.0,0.0,72,0.00,,SKC,0.00,VWS V13.01,2013-09-07 06:03:00,
2013-09-07 01:08:00,77.5,67.8,29.96,South,188,0.0,2.0,72,0.00,,SKC,0.00,VWS V13.01,2013-09-07 06:08:00,
2013-09-07 01:14:00,77.5,67.8,29.96,SW,214,0.0,0.0,72,0.00,,SKC,0.00,VWS V13.01,2013-09-07 06:14:00,
2013-09-07 01:20:00,77.4,67.7,29.96,SW,217,0.0,0.0,72,0.00,,SKC,0.00,VWS V13.01,2013-09-07 06:20:00,
2013-09-07 01:26:00,77.3,67.6,29.96,SE,132,0.0,0.0,72,0.00,,SKC,0.00,VWS V13.01,2013-09-07 06:26:00,
2013-09-07 01:31:00,77.1,67.4,29.96,SSW,195,0.0,1.0,72,0.00,,SKC,0.00,VWS V13.01,2013-09-07 06:31:00,
2013-09-07 01:37:00,77.1,67.8,29.96,SSW,210,0.0,0.0,73,0.00,,SKC,0.00,VWS V13.01,2013-09-07 06:37:00,
2013-09-07 01:42:00,77.0,67.7,29.96,SW,215,0.0,5.0,73,0.00,,SKC,0.00,VWS V13.01,2013-09-07 06:42:00,
2013-09-07 01:47:00,76.9,67.6,29.96,SSE,162,0.0,6.0,73,0.00,,SKC,0.00,VWS V13.01,2013-09-07 06:47:00,
2013-09-07 01:52:00,76.8,67.5,29.96,SSW,200,0.0,0.0,73,0.00,,SKC,0.00,VWS V13.01,2013-09-07 06:52:00,
2013-09-07 01:57:00,76.7,67.4,29.96,South,187,0.0,6.0,73,0.00,,SKC,0.00,VWS V13.01,2013-09-07 06:57:00,
2013-09-07 02:03:00,76.6,67.3,29.96,South,187,0.0,0.0,73,0.00,,SKC,0.00,VWS V13.01,2013-09-07 07:03:00,
2013-09-07 02:08:00,76.6,67.7,29.96,South,188,0.0,0.0,74,0.00,,SKC,0.00,VWS V13.01,2013-09-07 07:08:00,
2013-09-07 02:13:00,76.4,67.5,29.96,South,187,0.0,0.0,74,0.00,,SKC,0.00,VWS V13.01,2013-09-07 07:13:00,
2013-09-07 02:18:00,76.2,67.3,29.96,South,183,0.0,0.0,74,0.00,,SKC,0.00,VWS V13.01,2013-09-07 07:18:00,
2013-09-07 02:23:00,76.1,67.6,29.96,South,191,0.0,0.0,75,0.00,,SKC,0.00,VWS V13.01,2013-09-07 07:23:00,
2013-09-07 02:28:00,76.0,67.5,29.95,South,191,0.0,0.0,75,0.00,,SKC,0.00,VWS V13.01,2013-09-07 07:28:00,
2013-09-07 02:33:00,75.8,67.3,29.95,SSW,196,0.0,1.0,75,0.00,,SKC,0.00,VWS V13.01,2013-09-07 07:33:00,
2013-09-07 02:38:00,75.8,67.3,29.96,East,93,0.0,1.0,75,0.00,,SKC,0.00,VWS V13.01,2013-09-07 07:38:00,
2013-09-07 02:43:00,75.7,67.2,29.96,SSW,195,0.0,0.0,75,0.00,,SKC,0.00,VWS V13.01,2013-09-07 07:43:00,
2013-09-07 02:48:00,75.6,67.5,29.95,SSW,197,0.0,4.0,76,0.00,,SKC,0.00,VWS V13.01,2013-09-07 07:48:00,
2013-09-07 02:53:00,75.5,67.4,29.95,South,175,0.0,2.0,76,0.00,,SKC,0.00,VWS V13.01,2013-09-07 07:53:00,
2013-09-07 02:58:00,75.5,67.4,29.96,SW,215,0.0,0.0,76,0.00,,SKC,0.00,VWS V13.01,2013-09-07 07:58:00,
2013-09-07 03:03:00,75.4,67.3,29.95,SSW,203,0.0,2.0,76,0.00,,SKC,0.00,VWS V13.01,2013-09-07 08:03:00,
2013-09-07 03:08:00,75.3,67.2,29.95,SSW,205,0.0,3.0,76,0.00,,SKC,0.00,VWS V13.01,2013-09-07 08:08:00,
2013-09-07 03:13:00,75.2,67.1,29.95,South,187,0.0,0.0,76,0.00,,SKC,0.00,VWS V13.01,2013-09-07 08:13:00,
2013-09-07 03:19:00,75.1,67.0,29.95,South,172,0.0,0.0,76,0.00,,SKC,0.00,VWS V13.01,2013-09-07 08:19:00,
2013-09-07 03:24:00,74.9,67.2,29.95,SSW,199,0.0,0.0,77,0.00,,SKC,0.00,VWS V13.01,2013-09-07 08:24:00,
2013-09-07 03:29:00,74.9,67.2,29.95,SSW,196,1.0,3.0,77,0.00,,SKC,0.00,VWS V13.01,2013-09-07 08:29:00,
2013-09-07 03:34:00,74.9,67.2,29.95,South,172,2.0,6.0,77,0.00,,SKC,0.00,VWS V13.01,2013-09-07 08:34:00,
2013-09-07 03:40:00,74.9,67.2,29.95,SSW,195,0.0,1.0,77,0.00,,SKC,0.00,VWS V13.01,2013-09-07 08:40:00,
2013-09-07 03:45:00,74.8,67.1,29.95,SSW,199,0.0,0.0,77,0.00,,SKC,0.00,VWS V13.01,2013-09-07 08:45:00,
2013-09-07 03:50:00,74.7,67.0,29.95,South,186,0.0,0.0,77,0.00,,SKC,0.00,VWS V13.01,2013-09-07 08:50:00,
2013-09-07 03:55:00,74.7,67.0,29.95,SSW,196,0.0,0.0,77,0.00,,SKC,0.00,VWS V13.01,2013-09-07 08:55:00,
2013-09-07 04:00:00,74.6,66.9,29.95,SSW,205,0.0,7.0,77,0.00,,SKC,0.00,VWS V13.01,2013-09-07 09:00:00,
2013-09-07 04:05:00,74.6,67.3,29.95,South,181,0.0,10.0,78,0.00,,SKC,0.00,VWS V13.01,2013-09-07 09:05:00,
2013-09-07 04:10:00,74.6,66.9,29.95,SSW,205,0.0,2.0,77,0.00,,SKC,0.00,VWS V13.01,2013-09-07 09:10:00,
2013-09-07 04:15:00,74.5,67.2,29.95,SSW,207,1.0,1.0,78,0.00,,SKC,0.00,VWS V13.01,2013-09-07 09:15:00,
2013-09-07 04:20:00,74.5,67.2,29.95,SSE,158,0.0,0.0,78,0.00,,SKC,0.00,VWS V13.01,2013-09-07 09:20:00,
2013-09-07 04:25:00,74.3,67.0,29.95,SSW,193,0.0,0.0,78,0.00,,SKC,0.00,VWS V13.01,2013-09-07 09:25:00,
2013-09-07 04:30:00,74.2,66.9,29.94,South,179,0.0,0.0,78,0.00,,SKC,0.00,VWS V13.01,2013-09-07 09:30:00,
2013-09-07 04:35:00,74.1,66.8,29.94,SSW,196,0.0,5.0,78,0.00,,SKC,0.00,VWS V13.01,2013-09-07 09:35:00,
2013-09-07 04:40:00,74.0,66.7,29.94,SSW,192,0.0,0.0,78,0.00,,SKC,0.00,VWS V13.01,2013-09-07 09:40:00,
2013-09-07 04:45:00,74.0,66.7,29.94,South,191,0.0,0.0,78,0.00,,SKC,0.00,VWS V13.01,2013-09-07 09:45:00,
2013-09-07 04:50:00,73.8,66.9,29.94,South,185,0.0,0.0,79,0.00,,SKC,0.00,VWS V13.01,2013-09-07 09:50:00,
2013-09-07 04:55:00,73.7,66.8,29.94,South,180,0.0,0.0,79,0.00,,SKC,0.00,VWS V13.01,2013-09-07 09:55:00,
2013-09-07 05:00:00,73.6,66.7,29.94,South,185,0.0,3.0,79,0.00,,SKC,0.00,VWS V13.01,2013-09-07 10:00:00,
2013-09-07 05:06:00,73.5,66.6,29.94,South,187,0.0,0.0,79,0.00,,SKC,0.00,VWS V13.01,2013-09-07 10:06:00,
2013-09-07 05:11:00,73.4,66.5,29.94,South,191,0.0,0.0,79,0.00,,SKC,0.00,VWS V13.01,2013-09-07 10:11:00,
2013-09-07 05:16:00,73.3,66.8,29.94,SSW,199,0.0,2.0,80,0.00,,SKC,0.00,VWS V13.01,2013-09-07 10:16:00,
2013-09-07 05:21:00,73.2,66.7,29.94,SSW,196,0.0,0.0,80,0.00,,SKC,0.00,VWS V13.01,2013-09-07 10:21:00,
2013-09-07 05:26:00,73.1,66.6,29.94,SSW,193,0.0,0.0,80,0.00,,SKC,0.00,VWS V13.01,2013-09-07 10:26:00,
2013-09-07 05:31:00,73.0,66.5,29.94,SSW,201,0.0,3.0,80,0.00,,SKC,0.00,VWS V13.01,2013-09-07 10:31:00,
2013-09-07 05:36:00,72.8,66.6,29.94,SSE,162,0.0,0.0,81,0.00,,SKC,0.00,VWS V13.01,2013-09-07 10:36:00,
2013-09-07 05:41:00,72.8,66.6,29.94,SSW,201,0.0,0.0,81,0.00,,SKC,0.00,VWS V13.01,2013-09-07 10:41:00,
2013-09-07 05:46:00,72.7,66.5,29.94,SSW,197,0.0,0.0,81,0.00,,SKC,0.00,VWS V13.01,2013-09-07 10:46:00,
2013-09-07 05:51:00,72.6,66.4,29.94,SSW,195,0.0,0.0,81,0.00,,SKC,0.00,VWS V13.01,2013-09-07 10:51:00,
2013-09-07 05:56:00,72.5,66.3,29.94,South,177,0.0,0.0,81,0.00,,SKC,0.00,VWS V13.01,2013-09-07 10:56:00,
2013-09-07 06:01:00,72.4,66.2,29.94,SSW,195,0.0,0.0,81,0.00,,SKC,0.00,VWS V13.01,2013-09-07 11:01:00,
2013-09-07 06:06:00,72.4,66.2,29.94,SSW,199,0.0,3.0,81,0.00,,SKC,0.00,VWS V13.01,2013-09-07 11:06:00,
2013-09-07 06:11:00,72.3,66.5,29.94,South,189,0.0,1.0,82,0.00,,SKC,0.00,VWS V13.01,2013-09-07 11:11:00,
2013-09-07 06:16:00,72.2,66.4,29.94,SSW,210,0.0,0.0,82,0.00,,SKC,0.00,VWS V13.01,2013-09-07 11:16:00,
2013-09-07 06:21:00,72.2,66.4,29.94,South,185,0.0,0.0,82,0.00,,SKC,0.00,VWS V13.01,2013-09-07 11:21:00,
2013-09-07 06:26:00,72.1,66.3,29.94,SW,214,0.0,0.0,82,0.00,,SKC,0.00,VWS V13.01,2013-09-07 11:26:00,
2013-09-07 06:31:00,72.0,66.2,29.94,SW,214,0.0,0.0,82,0.00,,SKC,0.00,VWS V13.01,2013-09-07 11:31:00,
2013-09-07 06:36:00,71.9,66.1,29.94,SSW,203,0.0,0.0,82,0.00,,SKC,0.00,VWS V13.01,2013-09-07 11:36:00,
2013-09-07 06:41:00,71.8,66.0,29.94,South,186,0.0,1.0,82,0.00,,SKC,0.00,VWS V13.01,2013-09-07 11:41:00,
2013-09-07 06:46:00,71.8,66.0,29.93,SSW,194,0.0,5.0,82,0.00,,SKC,0.00,VWS V13.01,2013-09-07 11:46:00,
2013-09-07 06:51:00,71.7,65.9,29.93,SW,230,0.0,0.0,82,0.00,,SKC,0.00,VWS V13.01,2013-09-07 11:51:00,
2013-09-07 06:56:00,71.7,66.3,29.93,SSW,199,0.0,0.0,83,0.00,,SKC,0.00,VWS V13.01,2013-09-07 11:56:00,
2013-09-07 07:01:00,71.7,66.3,29.93,South,183,0.0,6.0,83,0.00,,SKC,0.00,VWS V13.01,2013-09-07 12:01:00,
2013-09-07 07:06:00,71.6,66.2,29.93,SSW,193,0.0,0.0,83,0.00,,SKC,0.00,VWS V13.01,2013-09-07 12:06:00,
2013-09-07 07:11:00,71.6,66.2,29.93,SSE,158,0.0,0.0,83,0.00,,SKC,0.00,VWS V13.01,2013-09-07 12:11:00,
2013-09-07 07:16:00,71.6,66.2,29.93,SSW,192,0.0,0.0,83,0.00,,SKC,0.00,VWS V13.01,2013-09-07 12:16:00,
2013-09-07 07:21:00,71.6,66.2,29.93,South,180,5.0,5.0,83,0.00,,SKC,0.00,VWS V13.01,2013-09-07 12:21:00,
2013-09-07 07:26:00,71.6,66.2,29.93,South,175,0.0,0.0,83,0.00,,SKC,0.00,VWS V13.01,2013-09-07 12:26:00,
2013-09-07 07:31:00,71.7,66.3,29.93,South,187,0.0,0.0,83,0.00,,SKC,0.00,VWS V13.01,2013-09-07 12:31:00,
2013-09-07 07:36:00,71.8,66.4,29.92,South,188,0.0,0.0,83,0.00,,SKC,0.00,VWS V13.01,2013-09-07 12:36:00,
2013-09-07 07:41:00,72.0,66.2,29.92,SW,214,0.0,4.0,82,0.00,,SKC,0.00,VWS V13.01,2013-09-07 12:41:00,
2013-09-07 07:46:00,72.1,66.3,29.93,South,180,0.0,0.0,82,0.00,,SKC,0.00,VWS V13.01,2013-09-07 12:46:00,
2013-09-07 07:51:00,72.3,66.5,29.93,South,176,0.0,0.0,82,0.00,,SKC,0.00,VWS V13.01,2013-09-07 12:51:00,
2013-09-07 07:56:00,72.5,66.7,29.93,South,190,0.0,0.0,82,0.00,,SKC,0.00,VWS V13.01,2013-09-07 12:56:00,
2013-09-07 08:01:00,72.6,66.8,29.93,SSW,200,0.0,0.0,82,0.00,,SKC,0.00,VWS V13.01,2013-09-07 13:01:00,
2013-09-07 08:06:00,72.8,66.6,29.93,SSW,205,0.0,1.0,81,0.00,,SKC,0.00,VWS V13.01,2013-09-07 13:06:00,
2013-09-07 08:11:00,73.1,66.9,29.93,SSW,199,0.0,0.0,81,0.00,,SKC,0.00,VWS V13.01,2013-09-07 13:11:00,
2013-09-07 08:16:00,73.3,67.1,29.93,SSW,198,0.0,0.0,81,0.00,,SKC,0.00,VWS V13.01,2013-09-07 13:16:00,
2013-09-07 08:21:00,73.7,67.2,29.93,SSW,192,0.0,0.0,80,0.00,,SKC,0.00,VWS V13.01,2013-09-07 13:21:00,
2013-09-07 08:26:00,74.0,67.1,29.93,SSW,203,0.0,4.0,79,0.00,,SKC,0.00,VWS V13.01,2013-09-07 13:26:00,
2013-09-07 08:31:00,74.4,67.5,29.93,SSW,212,0.0,0.0,79,0.00,,SKC,0.00,VWS V13.01,2013-09-07 13:31:00,
2013-09-07 08:36:00,74.8,67.9,29.92,SSE,157,0.0,0.0,79,0.00,,SKC,0.00,VWS V13.01,2013-09-07 13:36:00,
2013-09-07 08:41:00,75.1,67.8,29.93,South,182,0.0,0.0,78,0.00,,SKC,0.00,VWS V13.01,2013-09-07 13:41:00,
2013-09-07 08:46:00,75.6,68.3,29.93,South,184,0.0,0.0,78,0.00,,SKC,0.00,VWS V13.01,2013-09-07 13:46:00,
2013-09-07 08:51:00,76.0,68.3,29.93,South,188,0.0,0.0,77,0.00,,SKC,0.00,VWS V13.01,2013-09-07 13:51:00,
2013-09-07 08:56:00,76.4,68.7,29.93,SSW,201,0.0,0.0,77,0.00,,SKC,0.00,VWS V13.01,2013-09-07 13:56:00,
2013-09-07 09:01:00,76.8,68.3,29.93,SW,218,4.0,4.0,75,0.00,,SKC,0.00,VWS V13.01,2013-09-07 14:01:00,
2013-09-07 09:06:00,77.0,68.1,29.92,SW,214,0.0,7.0,74,0.00,,SKC,0.00,VWS V13.01,2013-09-07 14:06:00,
2013-09-07 09:11:00,77.2,68.3,29.93,SSW,195,5.0,10.0,74,0.00,,SKC,0.00,VWS V13.01,2013-09-07 14:11:00,
2013-09-07 09:17:00,77.2,67.9,29.93,SW,228,0.0,8.0,73,0.00,,SKC,0.00,VWS V13.01,2013-09-07 14:17:00,
2013-09-07 09:22:00,77.2,67.9,29.94,WSW,246,0.0,0.0,73,0.00,,SKC,0.00,VWS V13.01,2013-09-07 14:22:00,
2013-09-07 09:27:00,77.4,68.1,29.94,WSW,243,5.0,5.0,73,0.00,,SKC,0.00,VWS V13.01,2013-09-07 14:27:00,
2013-09-07 09:32:00,77.9,68.6,29.93,SW,222,3.0,5.0,73,0.00,,SKC,0.00,VWS V13.01,2013-09-07 14:32:00,
2013-09-07 09:37:00,78.5,68.7,29.93,South,187,0.0,5.0,72,0.00,,SKC,0.00,VWS V13.01,2013-09-07 14:37:00,
2013-09-07 09:42:00,79.1,68.9,29.93,South,190,0.0,1.0,71,0.00,,SKC,0.00,VWS V13.01,2013-09-07 14:42:00,
2013-09-07 09:47:00,79.5,68.9,29.93,SW,214,0.0,7.0,70,0.00,,SKC,0.00,VWS V13.01,2013-09-07 14:47:00,
2013-09-07 09:52:00,80.0,68.9,29.93,South,179,0.0,1.0,69,0.00,,SKC,0.00,VWS V13.01,2013-09-07 14:52:00,
2013-09-07 09:57:00,80.6,69.1,29.93,SW,235,0.0,0.0,68,0.00,,SKC,0.00,VWS V13.01,2013-09-07 14:57:00,
2013-09-07 10:02:00,81.2,69.2,29.93,SW,236,0.0,5.0,67,0.00,,SKC,0.00,VWS V13.01,2013-09-07 15:02:00,
2013-09-07 10:07:00,81.4,69.4,29.93,West,274,0.0,0.0,67,0.00,,SKC,0.00,VWS V13.01,2013-09-07 15:07:00,
2013-09-07 10:12:00,81.8,69.3,29.93,SW,225,1.0,2.0,66,0.00,,SKC,0.00,VWS V13.01,2013-09-07 15:12:00,
2013-09-07 10:17:00,82.3,69.4,29.93,WSW,242,0.0,1.0,65,0.00,,SKC,0.00,VWS V13.01,2013-09-07 15:17:00,
2013-09-07 10:22:00,82.9,69.5,29.94,SSW,201,0.0,3.0,64,0.00,,SKC,0.00,VWS V13.01,2013-09-07 15:22:00,
2013-09-07 10:27:00,83.1,68.3,29.94,WSW,243,2.0,6.0,61,0.00,,SKC,0.00,VWS V13.01,2013-09-07 15:27:00,
2013-09-07 10:32:00,83.1,68.3,29.94,WSW,257,0.0,7.0,61,0.00,,SKC,0.00,VWS V13.01,2013-09-07 15:32:00,
2013-09-07 10:37:00,83.4,69.0,29.93,WNW,291,0.0,1.0,62,0.00,,SKC,0.00,VWS V13.01,2013-09-07 15:37:00,
2013-09-07 10:42:00,83.9,68.1,29.93,WNW,291,0.0,11.0,59,0.00,,SKC,0.00,VWS V13.01,2013-09-07 15:42:00,
2013-09-07 10:47:00,84.1,69.2,29.93,West,277,0.0,0.0,61,0.00,,SKC,0.00,VWS V13.01,2013-09-07 15:47:00,
2013-09-07 10:52:00,84.5,68.1,29.93,SW,221,0.0,6.0,58,0.00,,SKC,0.00,VWS V13.01,2013-09-07 15:52:00,
2013-09-07 10:57:00,84.5,68.1,29.93,WSW,253,0.0,0.0,58,0.00,,SKC,0.00,VWS V13.01,2013-09-07 15:57:00,
2013-09-07 11:02:00,84.5,69.6,29.93,SW,215,0.0,0.0,61,0.00,,SKC,0.00,VWS V13.01,2013-09-07 16:02:00,
2013-09-07 11:07:00,84.9,70.0,29.93,WSW,248,0.0,0.0,61,0.00,,SKC,0.00,VWS V13.01,2013-09-07 16:07:00,
2013-09-07 11:12:00,84.8,68.4,29.93,WSW,245,0.0,1.0,58,0.00,,SKC,0.00,VWS V13.01,2013-09-07 16:12:00,
2013-09-07 11:17:00,85.6,69.1,29.93,South,171,0.0,8.0,58,0.00,,SKC,0.00,VWS V13.01,2013-09-07 16:17:00,
2013-09-07 11:22:00,86.2,68.7,29.94,West,276,4.0,7.0,56,0.00,,SKC,0.00,VWS V13.01,2013-09-07 16:22:00,
2013-09-07 11:27:00,86.5,70.5,29.93,NW,320,0.0,0.0,59,0.00,,SKC,0.00,VWS V13.01,2013-09-07 16:27:00,
2013-09-07 11:32:00,87.8,69.6,29.93,South,182,0.0,0.0,55,0.00,,SKC,0.00,VWS V13.01,2013-09-07 16:32:00,
2013-09-07 11:37:00,87.4,68.7,29.93,SW,221,1.0,7.0,54,0.00,,SKC,0.00,VWS V13.01,2013-09-07 16:37:00,
2013-09-07 11:42:00,87.1,69.0,29.94,SW,219,1.0,4.0,55,0.00,,SKC,0.00,VWS V13.01,2013-09-07 16:42:00,
2013-09-07 11:47:00,87.4,69.3,29.93,WSW,241,2.0,3.0,55,0.00,,SKC,0.00,VWS V13.01,2013-09-07 16:47:00,
2013-09-07 11:52:00,87.1,67.9,29.94,SW,218,0.0,5.0,53,0.00,,SKC,0.00,VWS V13.01,2013-09-07 16:52:00,
2013-09-07 11:57:00,86.9,67.7,29.94,WNW,282,1.0,4.0,53,0.00,,SKC,0.00,VWS V13.01,2013-09-07 16:57:00,
2013-09-07 12:02:00,86.9,68.8,29.94,SW,224,0.0,2.0,55,0.00,,SKC,0.00,VWS V13.01,2013-09-07 17:02:00,
2013-09-07 12:07:00,87.4,69.3,29.94,SW,232,0.0,5.0,55,0.00,,SKC,0.00,VWS V13.01,2013-09-07 17:07:00,
2013-09-07 12:12:00,88.3,69.6,29.94,SW,220,1.0,1.0,54,0.00,,SKC,0.00,VWS V13.01,2013-09-07 17:12:00,
2013-09-07 12:17:00,88.5,69.2,29.94,SW,235,0.0,2.0,53,0.00,,SKC,0.00,VWS V13.01,2013-09-07 17:17:00,
2013-09-07 12:22:00,88.6,69.3,29.94,West,278,0.0,0.0,53,0.00,,SKC,0.00,VWS V13.01,2013-09-07 17:22:00,
2013-09-07 12:27:00,89.6,69.7,29.94,WSW,239,0.0,1.0,52,0.00,,SKC,0.00,VWS V13.01,2013-09-07 17:27:00,
2013-09-07 12:32:00,89.7,69.2,29.93,WSW,239,0.0,1.0,51,0.00,,SKC,0.00,VWS V13.01,2013-09-07 17:32:00,
2013-09-07 12:37:00,89.4,68.3,29.93,West,272,0.0,9.0,50,0.00,,SKC,0.00,VWS V13.01,2013-09-07 17:37:00,
2013-09-07 12:42:00,89.1,69.2,29.93,West,278,0.0,1.0,52,0.00,,SKC,0.00,VWS V13.01,2013-09-07 17:42:00,
2013-09-07 12:47:00,89.0,69.1,29.94,NW,314,0.0,1.0,52,0.00,,SKC,0.00,VWS V13.01,2013-09-07 17:47:00,
2013-09-07 12:52:00,88.6,68.7,29.94,NW,306,5.0,7.0,52,0.00,,SKC,0.00,VWS V13.01,2013-09-07 17:52:00,
2013-09-07 12:57:00,88.5,68.6,29.95,NW,306,6.0,6.0,52,0.00,,SKC,0.00,VWS V13.01,2013-09-07 17:57:00,
2013-09-07 13:02:00,88.6,68.7,29.94,NNW,333,0.0,0.0,52,0.00,,SKC,0.00,VWS V13.01,2013-09-07 18:02:00,
2013-09-07 13:07:00,89.0,69.7,29.95,WNW,295,1.0,6.0,53,0.00,,SKC,0.00,VWS V13.01,2013-09-07 18:07:00,
2013-09-07 13:12:00,89.2,69.3,29.95,West,270,3.0,5.0,52,0.00,,SKC,0.00,VWS V13.01,2013-09-07 18:12:00,
2013-09-07 13:17:00,88.4,69.1,29.95,West,274,0.0,4.0,53,0.00,,SKC,0.00,VWS V13.01,2013-09-07 18:17:00,
2013-09-07 13:22:00,88.7,69.9,29.96,West,259,3.0,9.0,54,0.00,,SKC,0.00,VWS V13.01,2013-09-07 18:22:00,
2013-09-07 13:27:00,88.6,69.8,29.96,West,277,5.0,6.0,54,0.00,,SKC,0.00,VWS V13.01,2013-09-07 18:27:00,
2013-09-07 13:32:00,88.3,69.0,29.96,West,278,0.0,7.0,53,0.00,,SKC,0.00,VWS V13.01,2013-09-07 18:32:00,
2013-09-07 13:37:00,88.2,69.5,29.97,West,261,7.0,7.0,54,0.00,,SKC,0.00,VWS V13.01,2013-09-07 18:37:00,
2013-09-07 13:42:00,88.1,69.9,29.96,NW,314,1.0,8.0,55,0.00,,SKC,0.00,VWS V13.01,2013-09-07 18:42:00,
2013-09-07 13:47:00,87.7,69.0,29.96,West,279,1.0,8.0,54,0.00,,SKC,0.00,VWS V13.01,2013-09-07 18:47:00,
2013-09-07 13:52:00,87.4,68.7,29.95,West,279,2.0,2.0,54,0.00,,SKC,0.00,VWS V13.01,2013-09-07 18:52:00,
2013-09-07 13:57:00,87.2,69.1,29.95,West,272,5.0,6.0,55,0.00,,SKC,0.00,VWS V13.01,2013-09-07 18:57:00,
2013-09-07 14:02:00,86.8,68.7,29.95,West,267,0.0,0.0,55,0.00,,SKC,0.00,VWS V13.01,2013-09-07 19:02:00,
2013-09-07 14:07:00,86.9,69.3,29.94,West,267,0.0,0.0,56,0.00,,SKC,0.00,VWS V13.01,2013-09-07 19:07:00,
2013-09-07 14:12:00,87.0,69.9,29.94,West,267,0.0,0.0,57,0.00,,SKC,0.00,VWS V13.01,2013-09-07 19:12:00,
2013-09-07 14:17:00,87.1,72.5,29.94,North,358,0.0,0.0,62,0.00,,SKC,0.00,VWS V13.01,2013-09-07 19:17:00,
2013-09-07 14:22:00,86.9,71.8,29.94,North,358,0.0,0.0,61,0.00,,SKC,0.00,VWS V13.01,2013-09-07 19:22:00,
2013-09-07 14:27:00,86.6,71.6,29.93,North,358,0.0,0.0,61,0.00,,SKC,0.00,VWS V13.01,2013-09-07 19:27:00,
2013-09-07 14:32:00,86.4,70.4,29.92,ENE,64,0.0,1.0,59,0.00,,SKC,0.00,VWS V13.01,2013-09-07 19:32:00,
2013-09-07 14:37:00,86.4,69.9,29.91,East,83,5.0,5.0,58,0.00,,SKC,0.00,VWS V13.01,2013-09-07 19:37:00,
2013-09-07 14:42:00,85.9,69.9,29.90,East,83,1.0,4.0,59,0.00,,SKC,0.00,VWS V13.01,2013-09-07 19:42:00,
2013-09-07 14:47:00,85.6,69.6,29.90,ENE,72,2.0,8.0,59,0.00,,SKC,0.00,VWS V13.01,2013-09-07 19:47:00,
2013-09-07 14:52:00,85.6,69.6,29.90,NE,36,0.0,5.0,59,0.00,,SKC,0.00,VWS V13.01,2013-09-07 19:52:00,
2013-09-07 14:57:00,85.6,69.6,29.89,East,94,6.0,11.0,59,0.00,,SKC,0.00,VWS V13.01,2013-09-07 19:57:00,
2013-09-07 15:02:00,85.6,70.1,29.89,ENE,78,0.0,3.0,60,0.00,,SKC,0.00,VWS V13.01,2013-09-07 20:02:00,
2013-09-07 15:07:00,85.6,70.1,29.89,East,84,0.0,4.0,60,0.00,,SKC,0.00,VWS V13.01,2013-09-07 20:07:00,
2013-09-07 15:12:00,85.7,70.7,29.89,ENE,60,0.0,0.0,61,0.00,,SKC,0.00,VWS V13.01,2013-09-07 20:12:00,
2013-09-07 15:17:00,85.9,70.9,29.89,NE,41,0.0,1.0,61,0.00,,SKC,0.00,VWS V13.01,2013-09-07 20:17:00,
2013-09-07 15:22:00,86.1,71.1,29.89,NE,41,0.0,0.0,61,0.00,,SKC,0.00,VWS V13.01,2013-09-07 20:22:00,
2013-09-07 15:27:00,86.3,70.8,29.90,NE,49,0.0,0.0,60,0.00,,SKC,0.00,VWS V13.01,2013-09-07 20:27:00,
2013-09-07 15:32:00,86.3,71.3,29.91,West,269,6.0,6.0,61,0.00,,SKC,0.00,VWS V13.01,2013-09-07 20:32:00,
2013-09-07 15:37:00,86.0,71.0,29.91,WSW,257,2.0,2.0,61,0.00,,SKC,0.00,VWS V13.01,2013-09-07 20:37:00,
2013-09-07 15:42:00,85.7,70.7,29.91,West,274,4.0,6.0,61,0.00,,SKC,0.00,VWS V13.01,2013-09-07 20:42:00,
2013-09-07 15:47:00,84.9,70.9,29.92,West,274,11.0,14.0,63,0.00,,SKC,0.00,VWS V13.01,2013-09-07 20:47:00,
2013-09-07 15:52:00,84.1,71.5,29.93,WNW,286,6.0,13.0,66,0.00,,SKC,0.00,VWS V13.01,2013-09-07 20:52:00,
2013-09-07 15:57:00,83.5,71.8,29.92,WNW,296,6.0,12.0,68,0.00,,SKC,0.00,VWS V13.01,2013-09-07 20:57:00,
2013-09-07 16:02:00,83.4,72.2,29.92,NW,304,11.0,13.0,69,0.00,,SKC,0.00,VWS V13.01,2013-09-07 21:02:00,
2013-09-07 16:07:00,83.4,72.2,29.92,WNW,303,6.0,7.0,69,0.00,,SKC,0.00,VWS V13.01,2013-09-07 21:07:00,
2013-09-07 16:12:00,83.6,72.4,29.92,NW,312,0.0,10.0,69,0.00,,SKC,0.00,VWS V13.01,2013-09-07 21:12:00,
2013-09-07 16:17:00,84.1,72.8,29.92,North,3,0.0,4.0,69,0.00,,SKC,0.00,VWS V13.01,2013-09-07 21:17:00,
2013-09-07 16:22:00,84.7,73.0,29.92,NNW,329,0.0,5.0,68,0.00,,SKC,0.00,VWS V13.01,2013-09-07 21:22:00,
2013-09-07 16:27:00,85.3,73.1,29.92,North,8,2.0,7.0,67,0.00,,SKC,0.00,VWS V13.01,2013-09-07 21:27:00,
2013-09-07 16:32:00,85.9,73.2,29.92,NNE,23,1.0,7.0,66,0.00,,SKC,0.00,VWS V13.01,2013-09-07 21:32:00,
2013-09-07 16:37:00,87.0,73.4,29.92,NW,309,0.0,7.0,64,0.00,,SKC,0.00,VWS V13.01,2013-09-07 21:37:00,
2013-09-07 16:42:00,88.3,73.6,29.92,NW,323,4.0,7.0,62,0.00,,SKC,0.00,VWS V13.01,2013-09-07 21:42:00,
2013-09-07 16:47:00,89.3,73.6,29.92,NW,322,0.0,4.0,60,0.00,,SKC,0.00,VWS V13.01,2013-09-07 21:47:00,
2013-09-07 16:52:00,90.1,73.3,29.92,NNE,14,1.0,5.0,58,0.00,,SKC,0.00,VWS V13.01,2013-09-07 21:52:00,
2013-09-07 16:57:00,90.6,73.3,29.92,North,358,1.0,7.0,57,0.00,,SKC,0.00,VWS V13.01,2013-09-07 21:57:00,
2013-09-07 17:02:00,91.0,73.1,29.92,NNE,27,4.0,5.0,56,0.00,,SKC,0.00,VWS V13.01,2013-09-07 22:02:00,
2013-09-07 17:07:00,90.9,73.6,29.92,NNE,30,3.0,3.0,57,0.00,,SKC,0.00,VWS V13.01,2013-09-07 22:07:00,
2013-09-07 17:12:00,91.1,73.8,29.92,NNE,12,0.0,0.0,57,0.00,,SKC,0.00,VWS V13.01,2013-09-07 22:12:00,
2013-09-07 17:17:00,91.3,73.4,29.92,NNE,15,0.0,7.0,56,0.00,,SKC,0.00,VWS V13.01,2013-09-07 22:17:00,
2013-09-07 17:22:00,91.3,73.4,29.92,NNW,339,0.0,5.0,56,0.00,,SKC,0.00,VWS V13.01,2013-09-07 22:22:00,
2013-09-07 17:27:00,91.3,73.4,29.92,NNW,342,0.0,0.0,56,0.00,,SKC,0.00,VWS V13.01,2013-09-07 22:27:00,
2013-09-07 17:32:00,91.7,73.8,29.92,NNE,16,0.0,3.0,56,0.00,,SKC,0.00,VWS V13.01,2013-09-07 22:32:00,
2013-09-07 17:37:00,92.0,74.1,29.92,NNE,14,0.0,2.0,56,0.00,,SKC,0.00,VWS V13.01,2013-09-07 22:37:00,
2013-09-07 17:42:00,92.8,74.3,29.92,NE,38,4.0,4.0,55,0.00,,SKC,0.00,VWS V13.01,2013-09-07 22:42:00,
2013-09-07 17:47:00,93.2,74.1,29.92,NNE,27,2.0,3.0,54,0.00,,SKC,0.00,VWS V13.01,2013-09-07 22:47:00,
2013-09-07 17:52:00,93.3,74.2,29.92,NNE,31,0.0,6.0,54,0.00,,SKC,0.00,VWS V13.01,2013-09-07 22:52:00,
2013-09-07 17:57:00,93.0,73.9,29.92,NNE,33,1.0,3.0,54,0.00,,SKC,0.00,VWS V13.01,2013-09-07 22:57:00,
2013-09-07 18:03:00,92.6,73.5,29.92,NE,45,0.0,3.0,54,0.00,,SKC,0.00,VWS V13.01,2013-09-07 23:03:00,
2013-09-07 18:08:00,92.3,73.8,29.92,NNE,22,1.0,7.0,55,0.00,,SKC,0.00,VWS V13.01,2013-09-07 23:08:00,
2013-09-07 18:13:00,92.4,73.9,29.92,NNW,335,2.0,11.0,55,0.00,,SKC,0.00,VWS V13.01,2013-09-07 23:13:00,
2013-09-07 18:18:00,92.4,73.9,29.92,ENE,72,1.0,4.0,55,0.00,,SKC,0.00,VWS V13.01,2013-09-07 23:18:00,
2013-09-07 18:23:00,92.3,73.3,29.92,NNE,25,1.0,3.0,54,0.00,,SKC,0.00,VWS V13.01,2013-09-07 23:23:00,
2013-09-07 18:28:00,92.1,73.1,29.92,NE,35,0.0,3.0,54,0.00,,SKC,0.00,VWS V13.01,2013-09-07 23:28:00,
2013-09-07 18:33:00,91.9,74.0,29.92,NNE,31,0.0,2.0,56,0.00,,SKC,0.00,VWS V13.01,2013-09-07 23:33:00,
2013-09-07 18:38:00,91.5,73.6,29.92,ENE,64,0.0,5.0,56,0.00,,SKC,0.00,VWS V13.01,2013-09-07 23:38:00,
2013-09-07 18:43:00,91.2,73.8,29.93,NE,45,0.0,5.0,57,0.00,,SKC,0.00,VWS V13.01,2013-09-07 23:43:00,
2013-09-07 18:48:00,90.8,74.0,29.92,NNE,33,0.0,5.0,58,0.00,,SKC,0.00,VWS V13.01,2013-09-07 23:48:00,
2013-09-07 18:53:00,89.8,74.1,29.93,NNE,22,0.0,9.0,60,0.00,,SKC,0.00,VWS V13.01,2013-09-07 23:53:00,
2013-09-07 18:58:00,88.4,74.2,29.93,NNE,29,0.0,5.0,63,0.00,,SKC,0.00,VWS V13.01,2013-09-07 23:58:00,
2013-09-07 19:03:00,87.5,73.8,29.93,NE,36,0.0,0.0,64,0.00,,SKC,0.00,VWS V13.01,2013-09-08 00:03:00,
2013-09-07 19:08:00,86.7,73.5,29.93,NE,43,0.0,3.0,65,0.00,,SKC,0.00,VWS V13.01,2013-09-08 00:08:00,
2013-09-07 19:13:00,86.1,73.4,29.93,NNE,29,0.0,5.0,66,0.00,,SKC,0.00,VWS V13.01,2013-09-08 00:13:00,
2013-09-07 19:18:00,85.4,73.2,29.93,NNE,31,0.0,4.0,67,0.00,,SKC,0.00,VWS V13.01,2013-09-08 00:18:00,
2013-09-07 19:23:00,84.8,73.1,29.94,North,358,0.0,0.0,68,0.00,,SKC,0.00,VWS V13.01,2013-09-08 00:23:00,
2013-09-07 19:28:00,84.3,73.0,29.93,NNE,29,0.0,6.0,69,0.00,,SKC,0.00,VWS V13.01,2013-09-08 00:28:00,
2013-09-07 19:33:00,83.8,73.0,29.93,NNE,29,0.0,2.0,70,0.00,,SKC,0.00,VWS V13.01,2013-09-08 00:33:00,
2013-09-07 19:38:00,83.3,72.9,29.93,NNE,33,0.0,0.0,71,0.00,,SKC,0.00,VWS V13.01,2013-09-08 00:38:00,
2013-09-07 19:43:00,83.1,72.7,29.94,NNE,16,0.0,0.0,71,0.00,,SKC,0.00,VWS V13.01,2013-09-08 00:43:00,
2013-09-07 19:48:00,82.9,72.5,29.94,ENE,62,0.0,0.0,71,0.00,,SKC,0.00,VWS V13.01,2013-09-08 00:48:00,
2013-09-07 19:53:00,82.6,72.2,29.94,ENE,69,2.0,6.0,71,0.00,,SKC,0.00,VWS V13.01,2013-09-08 00:53:00,
2013-09-07 19:58:00,82.3,72.4,29.94,NE,52,1.0,5.0,72,0.00,,SKC,0.00,VWS V13.01,2013-09-08 00:58:00,
2013-09-07 20:03:00,82.0,72.1,29.94,NNE,25,0.0,0.0,72,0.00,,SKC,0.00,VWS V13.01,2013-09-08 01:03:00,
2013-09-07 20:08:00,81.8,72.3,29.94,NNE,29,0.0,0.0,73,0.00,,SKC,0.00,VWS V13.01,2013-09-08 01:08:00,
2013-09-07 20:13:00,81.7,72.2,29.94,NNE,23,0.0,0.0,73,0.00,,SKC,0.00,VWS V13.01,2013-09-08 01:13:00,
2013-09-07 20:18:00,81.5,72.4,29.94,NNE,26,0.0,0.0,74,0.00,,SKC,0.00,VWS V13.01,2013-09-08 01:18:00,
2013-09-07 20:23:00,81.4,72.3,29.94,NE,48,1.0,1.0,74,0.00,,SKC,0.00,VWS V13.01,2013-09-08 01:23:00,
2013-09-07 20:28:00,81.3,72.2,29.94,NE,34,0.0,0.0,74,0.00,,SKC,0.00,VWS V13.01,2013-09-08 01:28:00,
2013-09-07 20:33:00,81.1,72.4,29.94,NE,35,0.0,0.0,75,0.00,,SKC,0.00,VWS V13.01,2013-09-08 01:33:00,
2013-09-07 20:38:00,80.9,72.2,29.94,NE,45,0.0,0.0,75,0.00,,SKC,0.00,VWS V13.01,2013-09-08 01:38:00,
2013-09-07 20:43:00,80.8,72.5,29.94,NE,45,0.0,0.0,76,0.00,,SKC,0.00,VWS V13.01,2013-09-08 01:43:00,
2013-09-07 20:48:00,80.7,72.4,29.94,NE,38,0.0,1.0,76,0.00,,SKC,0.00,VWS V13.01,2013-09-08 01:48:00,
2013-09-07 20:53:00,80.5,72.6,29.94,NE,51,0.0,3.0,77,0.00,,SKC,0.00,VWS V13.01,2013-09-08 01:53:00,
2013-09-07 20:58:00,80.3,72.4,29.94,NE,48,0.0,1.0,77,0.00,,SKC,0.00,VWS V13.01,2013-09-08 01:58:00,
2013-09-07 21:03:00,80.2,72.7,29.94,NE,45,0.0,0.0,78,0.00,,SKC,0.00,VWS V13.01,2013-09-08 02:03:00,
2013-09-07 21:08:00,80.1,72.6,29.95,NE,47,0.0,1.0,78,0.00,,SKC,0.00,VWS V13.01,2013-09-08 02:08:00,
2013-09-07 21:13:00,79.9,72.8,29.94,NE,47,0.0,0.0,79,0.00,,SKC,0.00,VWS V13.01,2013-09-08 02:13:00,
2013-09-07 21:18:00,79.8,72.7,29.94,NE,54,0.0,0.0,79,0.00,,SKC,0.00,VWS V13.01,2013-09-08 02:18:00,
2013-09-07 21:23:00,79.6,72.5,29.94,NE,56,0.0,3.0,79,0.00,,SKC,0.00,VWS V13.01,2013-09-08 02:23:00,
2013-09-07 21:28:00,79.5,72.4,29.94,NE,52,0.0,6.0,79,0.00,,SKC,0.00,VWS V13.01,2013-09-08 02:28:00,
2013-09-07 21:33:00,79.4,72.7,29.94,NNE,20,0.0,1.0,80,0.00,,SKC,0.00,VWS V13.01,2013-09-08 02:33:00,
2013-09-07 21:38:00,79.3,72.6,29.94,ENE,59,0.0,10.0,80,0.00,,SKC,0.00,VWS V13.01,2013-09-08 02:38:00,
2013-09-07 21:43:00,79.2,72.5,29.94,NE,51,0.0,0.0,80,0.00,,SKC,0.00,VWS V13.01,2013-09-08 02:43:00,
2013-09-07 21:48:00,79.1,72.4,29.94,NE,41,0.0,0.0,80,0.00,,SKC,0.00,VWS V13.01,2013-09-08 02:48:00,
2013-09-07 21:53:00,79.0,72.3,29.94,NE,39,0.0,0.0,80,0.00,,SKC,0.00,VWS V13.01,2013-09-08 02:53:00,
2013-09-07 21:58:00,79.0,72.3,29.94,NE,39,0.0,0.0,80,0.00,,SKC,0.00,VWS V13.01,2013-09-08 02:58:00,
2013-09-07 22:03:00,78.9,72.2,29.94,NNE,33,0.0,0.0,80,0.00,,SKC,0.00,VWS V13.01,2013-09-08 03:03:00,
2013-09-07 22:08:00,78.8,72.1,29.94,NE,41,0.0,0.0,80,0.00,,SKC,0.00,VWS V13.01,2013-09-08 03:08:00,
2013-09-07 22:13:00,78.8,72.5,29.95,ENE,58,0.0,0.0,81,0.00,,SKC,0.00,VWS V13.01,2013-09-08 03:13:00,
2013-09-07 22:18:00,78.7,72.4,29.94,NE,56,0.0,0.0,81,0.00,,SKC,0.00,VWS V13.01,2013-09-08 03:18:00,
2013-09-07 22:23:00,78.6,72.3,29.95,NE,56,0.0,0.0,81,0.00,,SKC,0.00,VWS V13.01,2013-09-08 03:23:00,
2013-09-07 22:28:00,78.5,72.2,29.95,NE,56,0.0,0.0,81,0.00,,SKC,0.00,VWS V13.01,2013-09-08 03:28:00,
2013-09-07 22:33:00,78.4,72.1,29.95,NE,56,0.0,0.0,81,0.00,,SKC,0.00,VWS V13.01,2013-09-08 03:33:00,
2013-09-07 22:38:00,78.4,72.1,29.95,ENE,57,0.0,0.0,81,0.00,,SKC,0.00,VWS V13.01,2013-09-08 03:38:00,
2013-09-07 22:43:00,78.3,72.0,29.95,NE,56,0.0,0.0,81,0.00,,SKC,0.00,VWS V13.01,2013-09-08 03:43:00,
2013-09-07 22:48:00,78.2,71.9,29.95,NE,56,0.0,0.0,81,0.00,,SKC,0.00,VWS V13.01,2013-09-08 03:48:00,
2013-09-07 22:53:00,78.2,71.9,29.95,NE,56,0.0,0.0,81,0.00,,SKC,0.00,VWS V13.01,2013-09-08 03:53:00,
2013-09-07 22:58:00,78.0,71.7,29.95,ENE,57,0.0,0.0,81,0.00,,SKC,0.00,VWS V13.01,2013-09-08 03:58:00,
2013-09-07 23:01:00,78.0,71.7,29.95,ENE,57,0.0,0.0,81,0.00,,SKC,0.00,VWS V13.01,2013-09-08 04:01:00,
2013-09-07 23:02:00,78.0,71.7,29.95,NE,56,0.0,0.0,81,0.00,,SKC,0.00,VWS V13.01,2013-09-08 04:02:00,
2013-09-07 23:03:00,78.0,71.7,29.95,NE,56,0.0,0.0,81,0.00,,SKC,0.00,VWS V13.01,2013-09-08 04:03:00,
2013-09-07 23:04:00,78.0,72.1,29.95,NE,56,0.0,0.0,82,0.00,,SKC,0.00,VWS V13.01,2013-09-08 04:04:00,
2013-09-07 23:05:00,77.9,71.6,29.95,NE,56,0.0,0.0,81,0.00,,SKC,0.00,VWS V13.01,2013-09-08 04:05:00,
2013-09-07 23:08:00,77.9,72.0,29.95,NE,56,0.0,0.0,82,0.00,,SKC,0.00,VWS V13.01,2013-09-08 04:08:00,
2013-09-07 23:13:00,77.8,71.9,29.95,NE,56,0.0,0.0,82,0.00,,SKC,0.00,VWS V13.01,2013-09-08 04:13:00,
2013-09-07 23:18:00,77.7,71.8,29.95,NE,56,0.0,0.0,82,0.00,,SKC,0.00,VWS V13.01,2013-09-08 04:18:00,
2013-09-07 23:23:00,77.7,71.8,29.95,NE,56,0.0,0.0,82,0.00,,SKC,0.00,VWS V13.01,2013-09-08 04:23:00,
2013-09-07 23:28:00,77.6,71.7,29.95,NE,56,0.0,0.0,82,0.00,,SKC,0.00,VWS V13.01,2013-09-08 04:28:00,
2013-09-07 23:33:00,77.6,71.7,29.95,NE,56,0.0,0.0,82,0.00,,SKC,0.00,VWS V13.01,2013-09-08 04:33:00,
2013-09-07 23:38:00,77.5,71.6,29.95,NE,56,0.0,0.0,82,0.00,,SKC,0.00,VWS V13.01,2013-09-08 04:38:00,
2013-09-07 23:43:00,77.4,71.5,29.95,NE,56,0.0,0.0,82,0.00,,SKC,0.00,VWS V13.01,2013-09-08 04:43:00,
2013-09-07 23:48:00,77.4,71.5,29.95,NE,56,0.0,0.0,82,0.00,,SKC,0.00,VWS V13.01,2013-09-08 04:48:00,
2013-09-07 23:53:00,77.3,71.4,29.96,NE,56,0.0,0.0,82,0.00,,SKC,0.00,VWS V13.01,2013-09-08 04:53:00,
2013-09-07 23:58:00,77.2,71.3,29.95,NE,56,0.0,0.0,82,0.00,,SKC,0.00,VWS V13.01,2013-09-08 04:58:00,